Seneimaru — JG5357 — position and weather

sailwx.info

Track history (hours):
 
Tides and Currents Weather Stations Pressure Air Temp Water Temp Dewpoint Dewpoint Depression Visibility Wind Speed Wind Dir Waves Ship Positions

Seneimaru

Last reported at 2014-Oct-21 08:33 UTC. Time now 2014-Oct-21 16:53 UTC.
Position N 35°15' E 139°47'.

Length 72 m; draft 5.9 m.

Type: Cargo ship. MMSI: 431100477.

Date/timePositionNaut miles runAvg speedWind from/ knotsBaromVisibWave heightAir tempDewpointWater temp
2014-Oct-21 08:33N 35°15' E 139°47'1010.2
2014-Oct-21 07:33N 35°25' E 139°43'5 4.9
2014-Oct-21 06:33N 35°30' E 139°43'1 0.6
2014-Oct-21 05:33N 35°30' E 139°43'0 0.0
2014-Oct-21 04:33N 35°30' E 139°43'0 0.0
2014-Oct-21 03:33N 35°30' E 139°43'0 0.0
2014-Oct-21 02:33N 35°30' E 139°43'0 0.0
2014-Oct-21 01:33N 35°30' E 139°43'0 0.0
2014-Oct-21 00:33N 35°30' E 139°43'0 0.0
2014-Oct-20 23:33N 35°30' E 139°43'0 0.0
2014-Oct-20 22:33N 35°30' E 139°43'0 0.0
2014-Oct-20 21:33N 35°30' E 139°43'1 1.4
2014-Oct-20 20:33N 35°29' E 139°42'6 5.9
2014-Oct-20 19:33N 35°23' E 139°45'0 0.0
2014-Oct-20 18:33N 35°23' E 139°45'0 0.0
2014-Oct-20 17:33N 35°23' E 139°45'0 0.0
2014-Oct-20 16:33N 35°23' E 139°45'0 0.1
2014-Oct-20 15:33N 35°23' E 139°45'0 0.0
2014-Oct-20 14:33N 35°23' E 139°45'5 5.1
2014-Oct-20 13:33N 35°18' E 139°44'7 0.2
2014-Oct-19 02:12N 35°11' E 139°46'711.0
2014-Oct-19 01:33N 35°18' E 139°44'10 9.8
2014-Oct-19 00:33N 35°28' E 139°47'4 3.9
2014-Oct-18 23:33N 35°30' E 139°43'0 0.0
2014-Oct-18 22:33N 35°30' E 139°43'0 0.0
2014-Oct-18 21:33N 35°30' E 139°43'0 0.0
2014-Oct-18 20:33N 35°30' E 139°43'5 4.9
2014-Oct-18 19:33N 35°25' E 139°44'2 2.2
2014-Oct-18 18:33N 35°23' E 139°44'0 0.0
2014-Oct-18 17:33N 35°23' E 139°44'0 0.0
2014-Oct-18 16:33N 35°23' E 139°44'0 0.1
2014-Oct-18 15:33N 35°23' E 139°44'8 8.5
2014-Oct-18 14:33N 35°15' E 139°47'4 0.1
2014-Oct-17 04:09N 35°11' E 139°46'711.1
2014-Oct-17 03:33N 35°17' E 139°45'10 9.6
2014-Oct-17 02:33N 35°27' E 139°46'4 4.0
2014-Oct-17 01:33N 35°30' E 139°43'0 0.0
2014-Oct-17 00:33N 35°30' E 139°43'0 0.0
2014-Oct-16 23:33N 35°30' E 139°43'0 0.0
2014-Oct-16 22:33N 35°30' E 139°43'0 0.0
2014-Oct-16 21:33N 35°30' E 139°43'0 0.0
2014-Oct-16 20:33N 35°30' E 139°43'4 4.3
2014-Oct-16 19:33N 35°26' E 139°44'2 2.4
2014-Oct-16 18:32N 35°24' E 139°45'0 0.0
2014-Oct-16 17:32N 35°24' E 139°45'0 0.0
2014-Oct-16 16:32N 35°24' E 139°45'7 7.4
2014-Oct-16 15:33N 35°16' E 139°46'6 0.1
2014-Oct-15 02:17N 35°11' E 139°46'811.4
2014-Oct-15 01:33N 35°19' E 139°43'1110.6
2014-Oct-15 00:32N 35°29' E 139°47'4 3.9
2014-Oct-14 23:33N 35°30' E 139°43'0 0.0
2014-Oct-14 22:33N 35°30' E 139°43'0 0.0
2014-Oct-14 21:33N 35°30' E 139°43'0 0.0
2014-Oct-14 20:33N 35°30' E 139°43'0 0.0
2014-Oct-14 19:33N 35°30' E 139°43'0 0.0
2014-Oct-14 18:33N 35°30' E 139°43'0 0.0
2014-Oct-14 17:33N 35°30' E 139°43'0 0.0
2014-Oct-14 16:33N 35°30' E 139°43'0 0.0
2014-Oct-14 15:33N 35°30' E 139°43'0 0.0
2014-Oct-14 14:33N 35°30' E 139°43'0 0.0
2014-Oct-14 13:33N 35°30' E 139°43'0 0.0
2014-Oct-14 12:33N 35°30' E 139°43'0 0.0
2014-Oct-14 11:33N 35°30' E 139°43'0 0.0
2014-Oct-14 10:33N 35°30' E 139°43'0 0.0
2014-Oct-14 09:33N 35°30' E 139°43'0 0.0
2014-Oct-14 08:33N 35°30' E 139°43'0 0.0
2014-Oct-14 07:33N 35°30' E 139°43'0 0.0
2014-Oct-14 06:33N 35°30' E 139°43'0 0.0
2014-Oct-14 05:33N 35°30' E 139°43'0 0.0
2014-Oct-14 04:33N 35°30' E 139°43'0 0.0
2014-Oct-14 03:33N 35°30' E 139°43'0 0.0
2014-Oct-14 02:33N 35°30' E 139°43'0 0.0
2014-Oct-14 01:33N 35°30' E 139°43'0 0.0
2014-Oct-14 00:33N 35°30' E 139°43'0 0.0
2014-Oct-13 23:32N 35°30' E 139°43'0 0.0
2014-Oct-13 22:27N 35°30' E 139°43'0 0.0
2014-Oct-13 21:28N 35°30' E 139°43'0 0.0
2014-Oct-13 20:32N 35°30' E 139°43'0 0.0
2014-Oct-13 19:26N 35°30' E 139°43'0 0.0
2014-Oct-13 18:25N 35°30' E 139°43'0 0.0
2014-Oct-13 17:18N 35°30' E 139°43'0 0.0
2014-Oct-13 16:28N 35°30' E 139°43'0 0.0
2014-Oct-13 15:30N 35°30' E 139°43'0 0.0
2014-Oct-13 14:33N 35°30' E 139°43'0 0.0
2014-Oct-13 13:31N 35°30' E 139°43'7 0.4
2014-Oct-12 20:32N 35°24' E 139°45'0 0.0
2014-Oct-12 19:32N 35°24' E 139°45'0 0.0
2014-Oct-12 18:32N 35°24' E 139°45'0 0.0
2014-Oct-12 17:32N 35°24' E 139°45'0 0.0
2014-Oct-12 16:32N 35°24' E 139°45'0 0.0
2014-Oct-12 15:32N 35°24' E 139°45'0 0.0
2014-Oct-12 14:32N 35°24' E 139°45'0 0.0
2014-Oct-12 13:32N 35°24' E 139°45'0 0.0
2014-Oct-12 12:29N 35°24' E 139°45'0 0.0
2014-Oct-12 11:32N 35°24' E 139°45'0 0.0
2014-Oct-12 10:32N 35°24' E 139°45'0 0.0
2014-Oct-12 09:32N 35°24' E 139°45'0 0.0
2014-Oct-12 08:32N 35°24' E 139°45'0 0.0
2014-Oct-12 07:32N 35°24' E 139°45'0 0.0
2014-Oct-12 06:32N 35°24' E 139°45'0 0.0
2014-Oct-12 05:32N 35°24' E 139°45'0 0.0
2014-Oct-12 04:32N 35°24' E 139°45'0 0.0
2014-Oct-12 03:32N 35°24' E 139°45'0 0.0
2014-Oct-12 02:32N 35°24' E 139°45'0 0.0
2014-Oct-12 01:32N 35°24' E 139°45'0 0.0
2014-Oct-12 00:32N 35°24' E 139°45'0 0.0
2014-Oct-11 23:32N 35°24' E 139°45'0 0.0
2014-Oct-11 22:32N 35°24' E 139°45'0 0.0
2014-Oct-11 21:32N 35°24' E 139°45'0 0.0
2014-Oct-11 20:32N 35°24' E 139°45'0 0.0
2014-Oct-11 19:29N 35°24' E 139°45'0 0.0
2014-Oct-11 18:32N 35°24' E 139°45'0 0.0
2014-Oct-11 17:32N 35°24' E 139°45'0 0.0
2014-Oct-11 16:32N 35°24' E 139°45'0 0.0
2014-Oct-11 15:32N 35°24' E 139°45'0 0.0
2014-Oct-11 14:32N 35°24' E 139°45'0 0.0
2014-Oct-11 13:32N 35°24' E 139°45'0 0.0
2014-Oct-11 12:32N 35°24' E 139°45'0 0.0
2014-Oct-11 11:32N 35°24' E 139°45'0 0.0
2014-Oct-11 10:32N 35°24' E 139°45'0 0.0
2014-Oct-11 09:32N 35°24' E 139°45'  
Track history (hours):
 
Tides and Currents Weather Stations Pressure Air Temp Water Temp Dewpoint Dewpoint Depression Visibility Wind Speed Wind Dir Waves Ship Positions

Seneimaru

Last reported at 2014-Oct-21 08:33 UTC. Time now 2014-Oct-21 16:53 UTC.
Position N 35°15' E 139°47'.

Length 72 m; draft 5.9 m.

Type: Cargo ship. MMSI: 431100477.

Date/timePositionNaut miles runAvg speedWind from/ knotsBaromVisibWave heightAir tempDewpointWater temp
2014-Oct-21 08:33N 35°15' E 139°47'1010.2
2014-Oct-21 07:33N 35°25' E 139°43'5 4.9
2014-Oct-21 06:33N 35°30' E 139°43'1 0.6
2014-Oct-21 05:33N 35°30' E 139°43'0 0.0
2014-Oct-21 04:33N 35°30' E 139°43'0 0.0
2014-Oct-21 03:33N 35°30' E 139°43'0 0.0
2014-Oct-21 02:33N 35°30' E 139°43'0 0.0
2014-Oct-21 01:33N 35°30' E 139°43'0 0.0
2014-Oct-21 00:33N 35°30' E 139°43'0 0.0
2014-Oct-20 23:33N 35°30' E 139°43'0 0.0
2014-Oct-20 22:33N 35°30' E 139°43'0 0.0
2014-Oct-20 21:33N 35°30' E 139°43'1 1.4
2014-Oct-20 20:33N 35°29' E 139°42'6 5.9
2014-Oct-20 19:33N 35°23' E 139°45'0 0.0
2014-Oct-20 18:33N 35°23' E 139°45'0 0.0
2014-Oct-20 17:33N 35°23' E 139°45'0 0.0
2014-Oct-20 16:33N 35°23' E 139°45'0 0.1
2014-Oct-20 15:33N 35°23' E 139°45'0 0.0
2014-Oct-20 14:33N 35°23' E 139°45'5 5.1
2014-Oct-20 13:33N 35°18' E 139°44'7 0.2
2014-Oct-19 02:12N 35°11' E 139°46'711.0
2014-Oct-19 01:33N 35°18' E 139°44'10 9.8
2014-Oct-19 00:33N 35°28' E 139°47'4 3.9
2014-Oct-18 23:33N 35°30' E 139°43'0 0.0
2014-Oct-18 22:33N 35°30' E 139°43'0 0.0
2014-Oct-18 21:33N 35°30' E 139°43'0 0.0
2014-Oct-18 20:33N 35°30' E 139°43'5 4.9
2014-Oct-18 19:33N 35°25' E 139°44'2 2.2
2014-Oct-18 18:33N 35°23' E 139°44'0 0.0
2014-Oct-18 17:33N 35°23' E 139°44'0 0.0
2014-Oct-18 16:33N 35°23' E 139°44'0 0.1
2014-Oct-18 15:33N 35°23' E 139°44'8 8.5
2014-Oct-18 14:33N 35°15' E 139°47'4 0.1
2014-Oct-17 04:09N 35°11' E 139°46'711.1
2014-Oct-17 03:33N 35°17' E 139°45'10 9.6
2014-Oct-17 02:33N 35°27' E 139°46'4 4.0
2014-Oct-17 01:33N 35°30' E 139°43'0 0.0
2014-Oct-17 00:33N 35°30' E 139°43'0 0.0
2014-Oct-16 23:33N 35°30' E 139°43'0 0.0
2014-Oct-16 22:33N 35°30' E 139°43'0 0.0
2014-Oct-16 21:33N 35°30' E 139°43'0 0.0
2014-Oct-16 20:33N 35°30' E 139°43'4 4.3
2014-Oct-16 19:33N 35°26' E 139°44'2 2.4
2014-Oct-16 18:32N 35°24' E 139°45'0 0.0
2014-Oct-16 17:32N 35°24' E 139°45'0 0.0
2014-Oct-16 16:32N 35°24' E 139°45'7 7.4
2014-Oct-16 15:33N 35°16' E 139°46'6 0.1
2014-Oct-15 02:17N 35°11' E 139°46'811.4
2014-Oct-15 01:33N 35°19' E 139°43'1110.6
2014-Oct-15 00:32N 35°29' E 139°47'4 3.9
2014-Oct-14 23:33N 35°30' E 139°43'0 0.0
2014-Oct-14 22:33N 35°30' E 139°43'0 0.0
2014-Oct-14 21:33N 35°30' E 139°43'0 0.0
2014-Oct-14 20:33N 35°30' E 139°43'0 0.0
2014-Oct-14 19:33N 35°30' E 139°43'0 0.0
2014-Oct-14 18:33N 35°30' E 139°43'0 0.0
2014-Oct-14 17:33N 35°30' E 139°43'0 0.0
2014-Oct-14 16:33N 35°30' E 139°43'0 0.0
2014-Oct-14 15:33N 35°30' E 139°43'0 0.0
2014-Oct-14 14:33N 35°30' E 139°43'0 0.0
2014-Oct-14 13:33N 35°30' E 139°43'0 0.0
2014-Oct-14 12:33N 35°30' E 139°43'0 0.0
2014-Oct-14 11:33N 35°30' E 139°43'0 0.0
2014-Oct-14 10:33N 35°30' E 139°43'0 0.0
2014-Oct-14 09:33N 35°30' E 139°43'0 0.0
2014-Oct-14 08:33N 35°30' E 139°43'0 0.0
2014-Oct-14 07:33N 35°30' E 139°43'0 0.0
2014-Oct-14 06:33N 35°30' E 139°43'0 0.0
2014-Oct-14 05:33N 35°30' E 139°43'0 0.0
2014-Oct-14 04:33N 35°30' E 139°43'0 0.0
2014-Oct-14 03:33N 35°30' E 139°43'0 0.0
2014-Oct-14 02:33N 35°30' E 139°43'0 0.0
2014-Oct-14 01:33N 35°30' E 139°43'0 0.0
2014-Oct-14 00:33N 35°30' E 139°43'0 0.0
2014-Oct-13 23:32N 35°30' E 139°43'0 0.0
2014-Oct-13 22:27N 35°30' E 139°43'0 0.0
2014-Oct-13 21:28N 35°30' E 139°43'0 0.0
2014-Oct-13 20:32N 35°30' E 139°43'0 0.0
2014-Oct-13 19:26N 35°30' E 139°43'0 0.0
2014-Oct-13 18:25N 35°30' E 139°43'0 0.0
2014-Oct-13 17:18N 35°30' E 139°43'0 0.0
2014-Oct-13 16:28N 35°30' E 139°43'0 0.0
2014-Oct-13 15:30N 35°30' E 139°43'0 0.0
2014-Oct-13 14:33N 35°30' E 139°43'0 0.0
2014-Oct-13 13:31N 35°30' E 139°43'7 0.4
2014-Oct-12 20:32N 35°24' E 139°45'0 0.0
2014-Oct-12 19:32N 35°24' E 139°45'0 0.0
2014-Oct-12 18:32N 35°24' E 139°45'0 0.0
2014-Oct-12 17:32N 35°24' E 139°45'0 0.0
2014-Oct-12 16:32N 35°24' E 139°45'0 0.0
2014-Oct-12 15:32N 35°24' E 139°45'0 0.0
2014-Oct-12 14:32N 35°24' E 139°45'0 0.0
2014-Oct-12 13:32N 35°24' E 139°45'0 0.0
2014-Oct-12 12:29N 35°24' E 139°45'0 0.0
2014-Oct-12 11:32N 35°24' E 139°45'0 0.0
2014-Oct-12 10:32N 35°24' E 139°45'0 0.0
2014-Oct-12 09:32N 35°24' E 139°45'0 0.0
2014-Oct-12 08:32N 35°24' E 139°45'0 0.0
2014-Oct-12 07:32N 35°24' E 139°45'0 0.0
2014-Oct-12 06:32N 35°24' E 139°45'0 0.0
2014-Oct-12 05:32N 35°24' E 139°45'0 0.0
2014-Oct-12 04:32N 35°24' E 139°45'0 0.0
2014-Oct-12 03:32N 35°24' E 139°45'0 0.0
2014-Oct-12 02:32N 35°24' E 139°45'0 0.0
2014-Oct-12 01:32N 35°24' E 139°45'0 0.0
2014-Oct-12 00:32N 35°24' E 139°45'0 0.0
2014-Oct-11 23:32N 35°24' E 139°45'0 0.0
2014-Oct-11 22:32N 35°24' E 139°45'0 0.0
2014-Oct-11 21:32N 35°24' E 139°45'0 0.0
2014-Oct-11 20:32N 35°24' E 139°45'0 0.0
2014-Oct-11 19:29N 35°24' E 139°45'0 0.0
2014-Oct-11 18:32N 35°24' E 139°45'0 0.0
2014-Oct-11 17:32N 35°24' E 139°45'0 0.0
2014-Oct-11 16:32N 35°24' E 139°45'0 0.0
2014-Oct-11 15:32N 35°24' E 139°45'0 0.0
2014-Oct-11 14:32N 35°24' E 139°45'0 0.0
2014-Oct-11 13:32N 35°24' E 139°45'0 0.0
2014-Oct-11 12:32N 35°24' E 139°45'0 0.0
2014-Oct-11 11:32N 35°24' E 139°45'0 0.0
2014-Oct-11 10:32N 35°24' E 139°45'0 0.0
2014-Oct-11 09:32N 35°24' E 139°45'  

Dump ship's entire track history